Location: Bois de la Silve
(44.4667°N, 6.7833°E)
Time: 23:45:26
(UTC+00:00)

USA 238 DEB - Pass Details

Date: 26 October 2020
Orbit: 1001 x 1211 km, 63.5° (Epoch: 22 November)

Event Time Altitude Azimuth Distance (km) Brightness Sun altitude
Exits shadow 04:07:04 36° 285° (WNW) 1,590 4.1 -21.2°
Maximum altitude 04:08:47 42° 319° (NW) 1,456 4.1 -20.9°
Drops below altitude 10° 04:15:20 10° 30° (NNE) 2,943 6.4 -19.7°
Sets 04:18:15 0° 37° (NE) 3,936 7.2 -19.2°
